Regional Weather Roundup
Issued by NWS

Home | Current Version | Previous Version | Graphics & Text | Print | Product List | Glossary On
Versions: 1 2 3 4 5 6 7 8 9 10 11 12 13 14 15 16 17 18 19 20 21 22 23 24 25 26 27 28 29 30 31 32 33 34 35 36 37 38 39 40 41 42 43 44 45 46 47 48 49 50
000
ASUS43 KBIS 311310
RWRND

NORTH DAKOTA REGIONAL WEATHER ROUNDUP
NATIONAL WEATHER SERVICE BISMARCK ND
700 AM CST SAT JAN 31 2015

NOTE: "FAIR" INDICATES FEW OR NO CLOUDS BELOW 12,000 FEET WITH NO
SIGNIFICANT WEATHER AND/OR OBSTRUCTIONS TO VISIBILITY.


NDZ001>003-009>011-017-311400-
NORTHWEST NORTH DAKOTA

CITY           SKY/WX    TMP DP  RH WIND       PRES   REMARKS
WILLISTON      CLOUDY    20  16  84 E17       30.21R WCI   5
MINOT          CLOUDY     9   0  67 NE14      30.30R WCI  -7
MINOT AFB      CLOUDY     9   2  75 E14       30.31R WCI  -8
$$

NDZ018>021-031>035-040>046-311400-
SOUTHWEST NORTH DAKOTA

CITY           SKY/WX    TMP DP  RH WIND       PRES   REMARKS
BISMARCK       CLOUDY    20  17  88 E16       30.23R WCI   6
DICKINSON      FOG       21  19  92 E16       30.10R VSB 3/4 WCI   7
GARRISON         N/A     13  10  88 E14G23    30.24R WCI  -2
HETTINGER ARPT FOG       23  22  96 E14       30.09S VSB 1/2 WCI  11
$$

NDZ004>008-012>016-024-026-027-054-311400-
NORTHEAST NORTH DAKOTA

CITY           SKY/WX    TMP DP  RH WIND       PRES   REMARKS
GRAND FORKS    CLOUDY     6  -2  69 N15       30.39R WCI -12
GRND FRKS AFB  CLOUDY     6  -1  74 NE16      30.38S WCI -13
DEVILS LAKE    MOCLDY     7  -6  56 NE16      30.33R WCI -11
$$

NDZ022-023-025-028>030-036>039-047>053-311400-
SOUTHEAST NORTH DAKOTA

CITY           SKY/WX    TMP DP  RH WIND       PRES   REMARKS
FARGO          CLOUDY    13   5  70 N22       30.31R WCI  -6
JAMESTOWN      FLURRIES  15  10  80 NE17      30.27R WCI  -1
$$




USA.gov is the U.S. government's official web portal to all federal, state and local government web resources and services.